Weather History for Smyrna, TN

Change the Weather History Date:

Friday, November 9, 2012

  Actual Average Record
Temperature  
Mean Temperature 49 °F -  
Max Temperature 68 °F 58 °F 80 °F (2005)
Min Temperature 30 °F 42 °F 28 °F (2013)
Degree Days  
Heating Degree Days 16    
Moisture  
Dew Point 35 °F    
Average Humidity 87    
Maximum Humidity 100    
Minimum Humidity 33    
Precipitation  
Precipitation 0.00 in - - ()
Sea Level Pressure  
Sea Level Pressure 30.24 in    
Wind  
Wind Speed 1 mph (South)    
Max Wind Speed 9 mph    
Max Gust Speed -    
Visibility 5 miles    
Events Fog    
Averages and records for this station are not official NWS values.
T = Trace of Precipitation, MM = Missing Value Source: NWS Daily Summary

Daily Weather History Graph

Daily Weather History Graph

Search for Another Location

Airport:

Trip Planner

Search our weather history database for the weather conditions in past years. The results will help you decide how hot, cold, wet, or windy it might be!

Date:

Astronomy

Nov. 09, 2012 Rise Set
Actual Time 6:17 AM CST 4:42 PM CST
Civil Twilight 5:50 AM CST 5:09 PM CST
Nautical Twilight 5:19 AM CST 5:40 PM CST
Astronomical Twilight 4:49 AM CST 6:10 PM CST
Moon 1:23 AM CST (11/9) 1:47 PM CST (11/9)
Length of Visible Light 11h 19m
Length of Day
10h 25m
Waning Crescent, 23% of the Moon is Illuminated
Nov 9
Waning Crescent
Nov 13
New
Nov 20
First Quarter
Nov 28
Full
Dec 6
Last Quarter

Hourly Weather History & Observations

Time (CST) Temp. Windchill Dew Point Humidity Pressure Visibility Wind Dir Wind Speed Gust Speed Precip Events Conditions
12:07 AM 33.8 °F - 33.8 °F 100% 30.22 in 2.0 mi Calm Calm - N/A   Clear
12:17 AM 33.8 °F - 33.8 °F 100% 30.22 in 4.0 mi Calm Calm - N/A   Clear
12:40 AM 33.8 °F - 33.8 °F 100% 30.23 in 1.8 mi Calm Calm - N/A   Clear
12:45 AM 32.0 °F - 32.0 °F 100% 30.23 in 1.0 mi Calm Calm - N/A   Clear
12:56 AM 32.9 °F - 32.9 °F 100% 30.22 in 1.5 mi Calm Calm - N/A   Clear
1:13 AM 33.8 °F - 33.8 °F 100% 30.23 in 1.2 mi Calm Calm - N/A   Clear
1:23 AM 33.8 °F - 33.8 °F 100% 30.23 in 1.5 mi Calm Calm - N/A   Clear
1:39 AM 33.8 °F - 32.0 °F 93% 30.22 in 1.0 mi Calm Calm - N/A   Clear
1:44 AM 32.0 °F - 32.0 °F 100% 30.22 in 0.5 mi Calm Calm - N/A Fog Fog
1:56 AM 32.0 °F - 32.0 °F 100% 30.22 in 1.2 mi Calm Calm - N/A   Clear
2:05 AM 32.0 °F - 32.0 °F 100% 30.23 in 1.8 mi Calm Calm - N/A   Clear
2:41 AM 33.8 °F - 33.8 °F 100% 30.24 in 3.0 mi Calm Calm - N/A   Clear
2:56 AM 32.0 °F - 32.0 °F 100% 30.23 in 1.0 mi Calm Calm - N/A   Clear
3:00 AM 32.0 °F - 32.0 °F 100% 30.24 in 0.5 mi Calm Calm - N/A Fog Fog
3:07 AM 32.0 °F - 32.0 °F 100% 30.24 in 1.0 mi Calm Calm - N/A   Clear
3:10 AM 32.0 °F - 32.0 °F 100% 30.24 in 1.5 mi Calm Calm - N/A   Clear
3:20 AM 30.2 °F - 30.2 °F 100% 30.24 in 0.8 mi Calm Calm - N/A   Clear
3:23 AM 30.2 °F - 30.2 °F 100% 30.24 in 1.2 mi Calm Calm - N/A   Clear
3:25 AM 30.2 °F - 30.2 °F 100% 30.24 in 2.0 mi Calm Calm - N/A   Clear
3:56 AM 32.0 °F - 32.0 °F 100% 30.25 in 2.0 mi Calm Calm - N/A   Clear
4:05 AM 30.2 °F - 30.2 °F 100% 30.26 in 1.5 mi Calm Calm - N/A   Clear
4:18 AM 30.2 °F - 30.2 °F 100% 30.26 in 2.0 mi Calm Calm - N/A   Clear
4:33 AM 30.2 °F - 30.2 °F 100% 30.27 in 4.0 mi Calm Calm - N/A   Clear
4:46 AM 30.2 °F - 30.2 °F 100% 30.27 in 2.0 mi Calm Calm - N/A   Clear
4:56 AM 32.0 °F - 32.0 °F 100% 30.27 in 4.0 mi Calm Calm - N/A   Clear
5:31 AM 30.2 °F - 30.2 °F 100% 30.29 in 2.5 mi Calm Calm - N/A   Clear
5:47 AM 30.2 °F - 30.2 °F 100% 30.29 in 4.0 mi Calm Calm - N/A   Clear
5:56 AM 31.1 °F - 31.1 °F 100% 30.29 in 4.0 mi Calm Calm - N/A   Clear
6:08 AM 30.2 °F - 30.2 °F 100% 30.30 in 2.5 mi Calm Calm - N/A   Clear
6:15 AM 30.2 °F - 30.2 °F 100% 30.30 in 4.0 mi Calm Calm - N/A   Clear
6:29 AM 30.2 °F - 30.2 °F 100% 30.30 in 2.5 mi Calm Calm - N/A   Clear
6:36 AM 32.0 °F - 32.0 °F 100% 30.30 in 3.0 mi Calm Calm - N/A   Clear
6:56 AM 31.1 °F - 31.1 °F 100% 30.31 in 4.0 mi Calm Calm - N/A   Clear
7:56 AM 37.9 °F - 37.9 °F 100% 30.31 in 4.0 mi Calm Calm - N/A   Clear
8:56 AM 46.9 °F - 41.9 °F 83% 30.30 in 9.0 mi SSW 5.8 mph - N/A   Clear
9:56 AM 54.9 °F - 43.0 °F 64% 30.29 in 10.0 mi South 6.9 mph - N/A   Clear
10:56 AM 61.0 °F - 41.9 °F 49% 30.27 in 10.0 mi SW 8.1 mph - N/A   Clear
11:56 AM 63.0 °F - 41.9 °F 46% 30.24 in 10.0 mi Variable 4.6 mph - N/A   Clear
12:56 PM 64.9 °F - 41.9 °F 43% 30.21 in 10.0 mi South 9.2 mph - N/A   Clear
1:56 PM 66.9 °F - 41.0 °F 39% 30.19 in 10.0 mi South 9.2 mph - N/A   Clear
2:56 PM 68.0 °F - 37.9 °F 33% 30.18 in 10.0 mi SW 8.1 mph - N/A   Clear
3:56 PM 64.9 °F - 41.9 °F 43% 30.17 in 10.0 mi South 9.2 mph - N/A   Clear
4:56 PM 59.9 °F - 41.0 °F 50% 30.18 in 10.0 mi South 3.5 mph - N/A   Clear
5:56 PM 52.9 °F - 41.9 °F 66% 30.19 in 10.0 mi South 3.5 mph - N/A   Clear
6:56 PM 50.9 °F - 41.0 °F 69% 30.19 in 10.0 mi South 5.8 mph - N/A   Clear
7:56 PM 52.0 °F - 39.9 °F 63% 30.19 in 10.0 mi Calm Calm - N/A   Clear
9:56 PM 48.9 °F - 38.8 °F 68% 30.19 in 10.0 mi South 5.8 mph - N/A   Clear
10:56 PM 43.9 °F 41.3 °F 38.8 °F 82% 30.20 in 10.0 mi SSE 4.6 mph - N/A   Clear
11:56 PM 41.9 °F 40.0 °F 38.8 °F 89% 30.20 in 10.0 mi South 3.5 mph - N/A   Clear